Location: Harwich
(41.7160°N, 69.9939°W)
Time: 11:57:19
(UTC+01:00)

deb Explorer IX - Visible Passes

Search period start: 31 January 2023 00:00
Search period end: 10 February 2023 00:00
Orbit: 534 x 1049 km, 38.8° (Epoch: 30 January)

Date Brightness Start Highest point End Pass type
(mag) Time Alt. Az. Time Alt. Az. Time Alt. Az.
31 Jan ? 11:06:45 27° SSW 11:08:14 36° SSE 11:11:58 10° E visible
01 Feb ? 10:36:03 34° SSE 10:36:03 34° SSE 10:39:28 10° E visible
01 Feb ? 12:17:32 10° WSW 12:21:30 57° S 12:25:33 10° E visible
02 Feb ? 10:05:17 21° ESE 10:05:17 21° ESE 10:06:59 10° E visible
02 Feb ? 11:45:57 16° WSW 11:49:02 57° S 11:53:01 10° E visible
03 Feb ? 09:34:27 10° E 09:34:27 10° E 09:34:29 10° E visible
03 Feb ? 11:15:05 34° WSW 11:16:33 56° S 11:20:30 10° E visible
04 Feb ? 10:44:11 55° SSE 10:44:11 55° SSE 10:48:00 10° E visible
05 Feb ? 10:13:15 30° ESE 10:13:15 30° ESE 10:15:30 10° E visible
05 Feb ? 11:53:54 13° W 11:57:19 48° SSW 12:01:12 10° ESE visible
06 Feb ? 09:42:18 15° E 09:42:18 15° E 09:43:00 10° E visible
06 Feb ? 11:22:56 28° WSW 11:24:47 50° S 11:28:41 10° ESE visible
07 Feb ? 10:51:58 52° SSW 10:52:14 53° S 10:56:10 10° ESE visible
08 Feb ? 10:20:59 37° SE 10:20:59 37° SE 10:23:39 10° ESE visible
08 Feb ? 12:01:46 10° W 12:05:14 25° SSW 12:08:35 10° SSE visible
09 Feb ? 09:50:01 18° ESE 09:50:01 18° ESE 09:51:08 10° ESE visible
09 Feb ? 11:30:39 19° WSW 11:32:40 28° SSW 11:36:09 10° SE visible
